Weather History for Miles City, MT

Change the Weather History Date:

Thursday, May 3, 2012

  Actual Average Record
Temperature  
Mean Temperature 53 °F 52 °F  
Max Temperature 69 °F 65 °F 89 °F (1986)
Min Temperature 37 °F 39 °F 15 °F (1954)
Degree Days  
Heating Degree Days 12 13  
Month to date heating degree days 35 41  
Since 1 July heating degree days 5948 7287  
Cooling Degree Days 0 0  
Month to date cooling degree days 0 0  
Year to date cooling degree days 18 1  
Growing Degree Days 4 (Base 50)    
Moisture  
Dew Point 37 °F    
Average Humidity 57    
Maximum Humidity 85    
Minimum Humidity 29    
Precipitation  
Precipitation T in 0.06 in 2.17 in (1955)
Month to date precipitation 0.06 0.18  
Year to date precipitation 1.68 2.70  
Sea Level Pressure  
Sea Level Pressure 29.87 in    
Wind  
Wind Speed 8 mph (SE)    
Max Wind Speed 16 mph    
Max Gust Speed 24 mph    
Visibility 10 miles    
Events Rain    
T = Trace of Precipitation, MM = Missing Value Source: NWS Daily Summary

Daily Weather History Graph

Daily Weather History Graph

Search for Another Location

Airport:

Trip Planner

Search our weather history database for the weather conditions in past years. The results will help you decide how hot, cold, wet, or windy it might be!

Date:

Astronomy

May. 03, 2012 Rise Set
Actual Time 5:45 AM MDT 8:16 PM MDT
Civil Twilight 5:11 AM MDT 8:49 PM MDT
Nautical Twilight 4:29 AM MDT 9:32 PM MDT
Astronomical Twilight 3:40 AM MDT 10:21 PM MDT
Moon 5:36 PM MDT (5/3) 4:00 AM MDT (5/3)
Length of Visible Light 15h 38m
Length of Day
14h 30m
Waxing Gibbous, 91% of the Moon is Illuminated
May 3
Waxing Gibbous
May 5
Full
May 12
Last Quarter
May 20
New
May 28
First Quarter

Hourly Weather History & Observations

Time (MDT) Temp. Windchill Dew Point Humidity Pressure Visibility Wind Dir Wind Speed Gust Speed Precip Events Conditions
12:53 AM 43.0 °F 38.8 °F 35.1 °F 74% 29.89 in 10.0 mi West 6.9 mph - N/A   Clear
1:53 AM 42.1 °F 36.1 °F 35.1 °F 76% 29.90 in 10.0 mi WNW 10.4 mph - N/A   Clear
2:53 AM 41.0 °F 35.2 °F 34.0 °F 76% 29.91 in 10.0 mi WNW 9.2 mph - N/A   Partly Cloudy
3:53 AM 39.0 °F 34.0 °F 34.0 °F 82% 29.92 in 10.0 mi NW 6.9 mph - N/A   Clear
4:53 AM 39.9 °F - 34.0 °F 79% 29.93 in 10.0 mi Calm Calm - N/A   Clear
5:53 AM 41.0 °F - 34.0 °F 76% 29.93 in 10.0 mi Calm Calm - N/A   Clear
6:53 AM 39.0 °F 35.7 °F 36.0 °F 89% 29.95 in 10.0 mi SSE 4.6 mph - N/A   Clear
7:53 AM 44.1 °F - 37.0 °F 76% 29.97 in 10.0 mi Calm Calm - N/A   Clear
8:53 AM 51.1 °F - 37.0 °F 59% 29.97 in 10.0 mi South 4.6 mph - N/A   Clear
9:53 AM 52.0 °F - 36.0 °F 54% 29.97 in 10.0 mi Calm Calm - N/A   Clear
10:53 AM 55.9 °F - 36.0 °F 47% 29.95 in 10.0 mi East 4.6 mph - N/A   Partly Cloudy
11:53 AM 59.0 °F - 37.0 °F 44% 29.93 in 10.0 mi East 6.9 mph - N/A   Mostly Cloudy
12:53 PM 62.6 °F - 33.8 °F 34% 29.89 in 10.0 mi SSE 10.4 mph 17.3 mph N/A   Mostly Cloudy
1:53 PM 64.0 °F - 36.0 °F 35% 29.87 in 10.0 mi SSE 13.8 mph - N/A   Mostly Cloudy
2:53 PM 66.0 °F - 34.0 °F 30% 29.84 in 10.0 mi SE 12.7 mph 18.4 mph N/A   Clear
3:53 PM 68.0 °F - 36.0 °F 31% 29.81 in 10.0 mi SE 15.0 mph 18.4 mph N/A   Clear
4:53 PM 69.1 °F - 39.0 °F 33% 29.78 in 10.0 mi ESE 12.7 mph 19.6 mph N/A   Mostly Cloudy
5:53 PM 68.0 °F - 37.9 °F 33% 29.79 in 10.0 mi SE 9.2 mph - N/A   Overcast
6:53 PM 66.9 °F - 37.9 °F 34% 29.77 in 10.0 mi East 10.4 mph - N/A   Mostly Cloudy
7:53 PM 66.0 °F - 37.0 °F 34% 29.77 in 10.0 mi SE 16.1 mph 24.2 mph N/A   Overcast
8:53 PM 64.0 °F - 39.0 °F 40% 29.75 in 10.0 mi ESE 10.4 mph - N/A   Overcast
9:53 PM 61.0 °F - 45.0 °F 56% 29.79 in 10.0 mi SE 8.1 mph - 0.00 in Rain Light Rain
10:53 PM 57.9 °F - 48.0 °F 70% 29.75 in 10.0 mi ESE 10.4 mph - 0.00 in   Mostly Cloudy
11:53 PM 57.0 °F - 48.0 °F 72% 29.75 in 10.0 mi ESE 13.8 mph 21.9 mph N/A   Scattered Clouds